Lapse_Rate
7.3 7.1 6.9 6.8 6.7 6.6 6.5 6.4 6.3 6.3 6.3 6.3 6.3 6.2 6.1 6.1 6.2 6.1 6.0 6.0 6.0 6.0 6.0 6.1 6.1 6.2 6.2 6.1 6.1 6.0 6.0 6.1 6.2 6.2 6.1 5.9 5.8 5.7 5.6 5.6 5.5 5.5 5.4
7.2 7.1 7.0 6.9 6.7 6.6 6.5 6.4 6.3 6.3 6.2 6.1 6.0 6.0 6.0 6.0 6.0 6.1 6.1 6.1 6.1 6.1 6.1 6.2 6.3 6.3 6.4 6.5 6.4 6.5 6.5 6.5 6.5 6.6 6.4 6.3 6.2 6.0 6.0 5.9 5.8 5.7 5.6
7.3 7.1 7.1 6.9 6.6 6.4 6.4 6.4 6.2 6.1 6.1 6.0 6.0 6.0 5.9 6.0 6.1 6.1 6.0 6.0 6.1 6.1 6.1 6.3 6.4 6.5 6.6 6.7 6.7 6.7 6.6 6.5 6.5 6.6 6.5 6.4 6.3 6.2 6.2 6.1 6.0 5.9 5.9
7.3 7.0 7.0 6.9 6.6 6.5 6.4 6.3 6.3 6.3 6.1 5.8 5.8 5.9 6.0 6.0 6.0 6.0 6.0 6.0 6.0 6.1 6.3 6.4 6.4 6.5 6.4 6.4 6.4 6.4 6.5 6.4 6.3 6.4 6.3 6.3 6.3 6.3 6.2 6.2 6.1 6.0 5.9
7.2 7.0 6.8 6.7 6.4 6.4 6.4 6.3 6.2 6.1 5.9 5.8 5.7 5.8 5.8 5.8 5.8 6.0 6.0 6.1 6.1 6.2 6.4 6.4 6.4 6.4 6.3 6.2 6.2 6.1 6.1 6.2 6.1 6.1 6.2 6.1 6.1 6.1 6.1 6.1 6.2 6.2 6.1
6.7 6.3 6.2 6.1 6.2 6.3 6.2 6.0 6.0 5.9 5.9 5.7 5.6 5.6 5.7 5.7 5.8 5.9 5.9 6.0 6.2 6.1 6.3 6.3 6.2 6.2 6.1 6.0 6.0 6.0 5.9 5.9 6.0 6.0 6.0 6.1 6.1 6.1 6.2 6.2 6.2 6.2 6.2
6.1 5.8 6.4 6.3 6.2 6.2 6.0 5.9 5.8 5.9 5.8 5.8 5.6 5.5 5.6 5.7 5.8 5.9 6.0 6.1 6.1 6.0 6.1 5.9 5.8 5.8 5.8 5.8 5.8 5.8 5.8 5.8 5.9 5.9 6.0 6.1 6.2 6.3 6.2 6.3 6.3 6.3 6.4
5.9 5.9 6.1 6.2 6.2 6.1 5.9 5.8 5.7 5.7 5.6 5.5 5.6 5.7 5.7 5.9 5.9 5.9 6.0 6.1 6.0 6.0 6.0 5.8 5.8 5.8 5.8 5.8 5.8 5.9 5.9 6.0 6.0 6.0 6.0 6.0 6.0 6.0 6.1 6.1 6.2 6.3 6.4
5.9 5.6 5.9 6.1 6.1 5.8 5.7 5.6 5.6 5.6 5.5 5.5 5.5 5.7 5.7 5.8 6.0 6.1 6.2 6.1 5.9 6.0 5.9 5.8 5.8 5.8 5.8 5.8 6.0 6.0 6.0 6.0 6.0 6.1 6.0 6.0 5.9 5.9 6.0 6.0 5.9 5.9 6.0
6.1 5.8 6.0 6.1 5.9 5.6 5.6 5.6 5.5 5.5 5.4 5.5 5.6 5.7 5.7 5.6 5.8 6.2 6.7 6.6 6.5 6.3 6.1 6.0 6.0 6.0 6.0 6.0 6.1 6.1 6.2 6.2 6.2 6.2 6.2 6.1 6.1 6.0 5.9 5.9 5.8 5.7 5.5
5.9 5.8 5.7 5.9 5.8 5.6 5.5 5.5 5.5 5.4 5.4 5.5 5.7 5.8 5.7 5.8 5.8 5.8 6.2 6.5 6.5 6.5 6.6 6.7 6.6 6.5 6.3 6.3 6.5 6.6 6.6 6.6 6.6 6.5 6.4 6.1 5.9 5.7 5.5 5.2 4.9 4.7 4.6
5.9 5.7 5.9 5.8 5.7 5.5 5.5 5.5 5.4 5.4 5.5 5.5 5.6 5.7 5.7 5.7 5.8 5.8 5.9 6.0 6.2 6.6 6.6 6.6 6.6 6.6 6.4 6.3 6.3 6.3 6.3 6.2 6.0 5.8 5.6 5.3 5.0 4.6 4.3 4.0 3.8 3.5 3.3
5.6 5.7 5.8 5.7 5.5 5.4 5.5 5.4 5.4 5.3 5.4 5.6 5.6 5.6 5.6 5.7 5.7 5.7 5.7 5.7 5.8 6.0 6.1 6.4 6.5 6.4 6.3 6.1 6.1 6.0 5.9 5.5 5.0 4.6 4.3 4.0 3.8 3.7 3.5 3.3 3.2 3.1 3.0
5.9 5.8 5.7 5.6 5.5 5.3 5.4 5.4 5.3 5.3 5.5 5.5 5.5 5.5 5.5 5.6 5.6 5.6 5.5 5.5 5.8 5.9 5.8 5.6 5.6 5.6 5.4 5.5 5.3 5.0 4.8 4.5 4.0 3.6 3.4 3.3 3.1 3.0 2.9 2.8 2.8 2.8 2.6
6.0 5.8 5.6 5.5 5.4 5.5 5.5 5.4 5.3 5.4 5.4 5.4 5.4 5.5 5.6 5.5 5.5 5.4 5.4 5.3 5.3 5.6 5.9 5.7 5.2 4.8 4.6 4.5 4.4 4.1 3.8 3.3 3.1 3.0 2.8 2.7 2.8 3.2 4.0 4.6 4.7 4.5 4.4
5.9 5.8 5.6 5.4 5.4 5.5 5.5 5.5 5.5 5.5 5.4 5.5 5.5 5.5 5.4 5.4 5.4 5.3 5.3 5.2 5.3 5.3 5.7 5.1 4.8 4.3 4.0 3.7 3.5 3.3 2.8 2.7 3.0 3.1 3.4 3.7 3.9 4.2 4.7 5.0 5.2 5.5 5.7
5.9 5.7 5.5 5.3 5.4 5.5 5.6 5.6 5.6 5.5 5.6 5.6 5.5 5.4 5.3 5.3 5.3 5.1 5.1 5.2 5.1 4.9 5.1 5.3 4.6 4.1 3.6 3.4 3.2 2.4 2.3 3.0 4.1 4.7 4.9 4.8 4.8 5.0 4.9 4.8 4.8 4.8 4.8
5.8 5.7 5.4 5.5 5.5 5.6 5.6 5.6 5.6 5.7 5.7 5.5 5.3 5.2 5.3 5.2 5.0 5.0 5.0 5.0 4.8 4.4 4.3 4.6 4.4 4.0 3.6 3.2 2.4 2.5 3.6 4.5 5.0 5.3 5.2 4.9 5.2 4.9 4.7 4.5 4.5 4.5 4.7
5.7 5.6 5.6 5.5 5.6 5.7 5.7 5.7 5.7 5.7 5.6 5.3 5.2 5.2 5.1 5.0 5.0 4.9 4.8 4.6 4.3 4.2 4.0 4.0 4.2 3.6 3.3 2.9 3.2 4.3 4.6 5.1 5.1 5.1 5.2 4.6 4.6 4.7 4.6 4.5 4.3 4.2 4.5
5.6 5.6 5.6 5.6 5.8 5.7 5.6 5.7 5.7 5.5 5.3 5.2 5.1 5.0 5.0 4.8 4.8 4.6 4.4 4.1 3.9 3.7 3.6 3.1 2.9 3.1 3.2 3.8 4.1 4.6 4.9 5.1 5.1 5.0 5.1 4.8 4.8 4.9 5.0 4.5 4.4 4.3 4.2
5.6 5.7 5.8 5.9 5.7 5.5 5.6 5.6 5.4 5.3 5.2 5.0 5.0 4.9 4.8 4.7 4.5 4.2 3.9 3.7 3.6 3.4 3.0 2.7 2.8 3.1 4.1 4.4 4.7 4.7 4.9 5.1 5.6 4.7 5.0 5.7 4.8 5.4 5.0 4.7 4.7 4.8 4.7
5.8 5.8 5.8 5.5 5.4 5.6 5.4 5.4 5.2 5.1 5.0 4.9 4.9 4.9 4.7 4.5 4.2 3.9 3.7 3.4 3.1 2.8 2.9 2.7 3.2 4.0 4.2 4.5 4.4 4.8 4.9 4.9 5.7 5.4 3.7 6.0 4.8 5.5 4.7 4.6 4.6 4.9 5.2
5.7 5.6 5.4 5.3 5.4 5.4 5.3 5.1 5.1 5.0 4.9 4.9 4.8 4.6 4.3 4.0 3.8 3.6 3.4 3.2 3.1 3.1 2.9 3.7 4.2 4.3 4.1 4.2 4.2 4.9 5.0 4.7 5.0 4.5 3.0 5.5 4.6 5.5 4.8 4.4 4.7 5.2 5.4
5.3 5.4 5.3 5.4 5.3 5.2 5.1 5.0 5.0 4.9 5.0 4.8 4.5 4.1 3.9 3.6 3.4 3.5 3.2 3.1 3.2 3.4 4.1 4.4 4.3 4.2 4.0 4.0 4.0 4.0 4.2 4.9 5.4 4.9 2.8 4.5 4.5 5.3 5.5 4.8 4.9 5.2 5.5
5.1 5.3 5.3 5.2 5.1 5.1 5.0 4.9 4.9 4.8 4.8 4.4 4.2 3.7 3.6 3.5 3.2 3.0 2.9 3.2 3.7 4.5 4.7 4.5 4.3 4.0 4.0 3.9 3.6 3.6 4.1 3.9 5.0 5.6 4.1 4.7 4.9 5.3 5.9 5.5 5.2 5.6 6.1
5.2 5.2 5.0 5.1 5.1 5.0 4.9 4.9 4.8 4.6 4.3 4.1 3.8 3.7 3.5 3.2 3.1 3.0 3.1 3.8 4.5 4.8 4.8 5.0 4.8 4.4 4.2 4.2 3.9 3.5 3.7 4.0 4.3 5.6 4.4 5.1 5.4 4.6 7.1 6.3 6.0 5.8 6.2
Wind_Speed
6 6 5 4 3 3 4 4 4 2 2 3 4 5 4 5 5 4 2 9 9 7 8 10 10 11 12 12 12 13 13 13 14 12 13 14 15 15 15 15 15 15 15
6 4 4 5 6 6 4 2 2 2 2 4 4 4 4 4 5 2 1 6 11 10 10 10 11 12 13 13 13 14 14 14 14 13 14 15 17 17 17 17 18 18 19
9 8 5 4 6 6 5 3 2 2 3 4 4 4 5 5 3 1 1 2 7 11 11 12 12 13 14 14 15 15 14 15 17 15 15 17 18 18 18 19 20 20 21
12 10 5 5 5 4 5 3 2 2 3 4 4 4 3 4 2 2 3 3 3 2 4 10 12 12 13 15 15 14 14 15 18 18 17 18 19 19 20 22 22 22 22
14 10 6 6 6 5 4 3 3 3 3 4 5 3 3 1 3 3 4 3 3 2 4 5 9 10 12 14 13 13 14 17 17 19 18 19 20 21 23 23 21 22 23
15 12 9 8 6 5 4 3 4 4 4 5 5 4 1 0 3 3 3 1 0 2 4 7 11 12 12 11 13 14 16 17 17 19 18 20 22 23 23 22 24 25 26
15 11 8 7 6 5 4 3 4 5 4 6 4 3 1 0 3 4 3 3 1 4 5 8 12 14 12 15 14 14 18 18 18 19 20 23 23 24 24 25 27 29 28
15 12 8 7 7 5 6 6 4 2 3 6 4 3 3 3 1 4 5 2 4 4 8 13 14 13 15 14 13 18 16 18 21 23 24 24 25 26 27 28 30 30 31
13 12 11 8 7 6 5 6 5 4 3 3 5 3 2 2 6 1 3 5 3 6 9 13 14 16 16 15 15 15 16 20 23 25 26 28 29 29 30 32 33 33 34
12 12 11 10 8 5 7 5 4 4 2 2 1 3 3 3 3 5 2 5 5 9 10 8 12 18 14 15 16 16 17 20 26 28 29 30 30 32 33 35 36 37 36
11 10 12 10 8 5 6 6 4 4 2 1 2 2 2 3 3 4 9 6 10 9 9 7 13 11 14 16 15 15 18 26 28 28 29 30 32 33 35 36 37 37 37
7 9 11 10 9 7 6 5 4 3 2 2 1 1 3 3 4 5 8 11 13 11 9 10 7 10 15 17 16 20 26 27 30 30 30 30 32 34 35 36 36 37 37
6 9 8 8 6 7 6 5 3 2 1 1 2 3 3 4 5 6 8 11 11 11 9 6 8 12 14 14 19 26 28 31 30 31 32 33 34 35 35 36 37 37 38
8 10 8 9 9 7 6 4 2 1 0 2 3 4 4 5 5 6 8 10 13 11 12 14 11 8 10 18 22 27 25 28 29 31 34 35 36 36 37 36 37 38 37
9 10 9 8 7 6 5 3 1 1 2 2 4 4 4 5 5 6 7 8 10 14 13 11 9 11 16 20 23 25 26 29 30 34 35 35 35 37 38 38 39 38 37
11 10 9 7 6 4 3 1 1 1 3 3 4 5 6 5 7 7 8 8 9 12 14 12 12 14 14 17 24 25 25 28 30 33 35 37 37 36 37 37 37 37 37
11 9 8 6 5 3 2 0 1 2 4 5 5 6 8 8 7 8 8 9 10 11 14 14 13 15 18 17 17 21 22 24 24 32 33 34 35 35 36 37 37 37 36
10 9 7 5 4 2 0 2 3 3 5 6 7 7 9 7 10 10 8 11 11 13 13 20 16 14 16 18 17 16 14 23 21 27 32 33 35 36 36 35 35 35 35
10 8 6 4 3 1 1 2 4 5 6 7 8 9 10 10 11 9 11 11 11 11 12 13 16 13 14 12 14 16 16 15 17 27 31 32 33 35 35 35 35 34 34
9 7 5 4 2 1 2 3 5 7 8 8 8 9 11 11 11 12 12 14 13 13 14 13 13 14 12 14 13 13 13 12 12 14 23 26 30 31 32 33 33 33 32
7 6 4 3 1 2 2 6 7 8 9 10 10 10 10 12 17 16 11 14 15 13 11 12 13 12 13 14 14 13 13 13 15 12 13 13 12 13 15 25 27 30 30
6 5 3 2 2 2 5 7 8 9 10 10 11 11 11 14 14 18 20 22 18 15 14 11 12 14 18 15 13 13 14 13 16 12 12 16 13 15 14 13 27 31 32
5 4 3 1 3 4 6 8 10 9 9 10 11 11 11 10 14 14 17 23 21 23 20 17 17 17 17 17 15 17 16 16 15 14 14 16 13 15 13 14 29 31 32
4 3 1 2 3 3 6 10 12 11 9 11 12 13 13 14 14 15 17 14 13 17 16 13 16 17 16 15 15 16 16 18 15 13 13 15 14 14 14 13 31 32 30
3 1 2 3 5 5 6 11 12 10 10 11 11 13 12 14 18 23 16 14 19 17 17 21 23 27 26 27 20 11 11 11 14 13 13 11 11 14 14 15 13 21 24
2 1 3 3 4 6 7 10 11 8 10 9 12 13 17 15 21 23 16 17 16 17 15 17 15 17 18 16 20 13 9 11 12 13 10 9 12 10 8 9 9 13 12
Wind_Direction
171 168 167 166 135 83 75 93 87 80 350 2 355 343 334 329 330 318 353 39 39 43 56 51 38 27 17 8 360 354 348 344 340 339 342 337 332 328 323 322 320 315 308
166 175 129 122 107 102 93 97 66 31 11 352 337 334 321 321 314 324 332 81 59 62 58 46 34 21 11 0 349 343 341 337 332 328 326 326 323 319 315 311 309 306 301
167 147 137 134 132 130 117 100 83 34 355 339 325 319 305 317 286 270 138 94 114 74 57 43 27 13 3 353 343 335 332 335 328 319 317 316 315 312 309 305 301 299 297
151 137 128 121 128 127 111 79 42 34 355 337 326 316 304 300 225 152 143 113 81 65 89 33 15 4 355 344 334 329 325 326 324 313 310 309 307 304 302 299 296 294 291
148 135 130 125 129 111 93 98 74 28 13 348 318 309 322 248 170 137 128 111 74 15 345 3 348 334 339 334 333 329 323 320 318 313 306 306 304 300 299 294 292 294 293
140 121 127 127 129 117 109 113 93 62 22 348 312 314 350 178 174 177 158 250 37 335 338 331 331 326 322 324 323 322 321 319 316 311 306 305 301 299 295 293 292 290 287
131 127 135 134 126 111 109 96 87 49 31 358 325 332 241 185 219 212 246 307 185 313 316 326 326 325 322 318 319 324 322 320 318 312 308 305 301 298 293 291 290 287 284
125 128 144 134 127 123 99 80 64 80 50 23 358 294 320 188 156 209 306 277 300 311 322 326 325 321 320 316 318 316 320 320 319 313 307 302 299 295 292 291 290 285 284
129 134 141 133 124 116 102 88 71 47 53 50 25 342 302 304 332 255 261 314 287 325 326 320 316 316 313 310 311 315 319 317 316 312 307 303 298 294 293 290 287 284 282
128 134 132 124 117 115 107 94 78 61 27 23 174 40 353 325 321 309 236 285 323 306 310 309 306 312 304 308 310 305 310 313 314 307 303 299 296 293 291 290 288 286 285
131 130 124 120 115 106 102 105 97 71 53 1 8 343 314 299 272 275 298 309 303 309 303 302 304 294 302 304 303 298 312 309 307 304 299 298 296 293 291 289 288 287 286
129 130 121 116 111 111 111 104 97 90 67 49 343 303 307 302 304 291 295 300 301 307 310 299 290 300 303 306 301 309 311 308 307 305 301 298 296 294 293 292 290 289 287
142 133 127 126 116 112 109 106 97 132 93 334 292 299 281 277 290 290 293 296 300 304 298 273 294 294 299 295 306 309 309 304 303 303 301 299 300 299 298 296 293 291 288
140 134 125 120 119 118 116 108 132 161 259 253 274 290 293 285 289 292 295 302 303 297 296 297 301 306 294 297 305 298 295 300 297 295 297 299 299 299 297 295 293 294 292
131 128 128 124 123 124 109 129 143 233 257 287 298 296 291 295 292 290 291 290 295 302 300 304 294 303 308 303 301 301 298 296 299 297 295 295 294 294 293 293 290 288 285
129 131 129 129 132 121 125 172 228 255 298 316 306 301 300 299 297 292 290 289 287 290 292 300 300 306 304 304 299 295 296 299 294 295 293 291 294 293 293 292 291 287 287
132 130 132 134 132 134 139 235 334 307 313 304 297 300 300 299 296 297 296 292 289 289 290 296 299 305 303 298 301 302 304 295 288 296 297 294 294 294 291 289 289 288 286
128 128 129 131 130 124 29 339 328 312 300 301 301 299 299 303 299 300 297 296 294 292 291 295 301 298 301 302 303 297 288 300 297 296 295 295 294 293 292 290 288 287 284
126 125 129 130 123 104 337 336 315 301 297 295 296 298 300 302 299 303 301 298 294 292 293 289 292 299 295 308 294 310 298 297 299 300 296 296 294 291 290 289 287 286 286
127 125 121 118 111 45 342 317 305 297 298 294 296 293 298 298 297 302 297 298 300 297 291 294 292 297 299 305 303 303 305 304 300 300 293 290 289 290 288 286 286 285 284
120 120 125 123 79 0 341 322 306 302 297 298 297 295 294 297 296 295 297 295 302 300 295 291 290 299 307 306 307 311 301 302 299 300 297 292 296 295 286 284 282 282 282
125 131 128 81 6 320 340 310 310 305 298 297 298 301 300 299 297 296 300 298 296 292 288 296 305 296 299 308 305 306 304 303 305 299 306 295 295 291 285 283 284 286 285
138 125 94 20 321 325 327 319 314 302 302 300 300 303 303 304 303 303 300 294 295 300 295 293 294 298 300 303 306 296 304 297 295 297 298 292 294 290 291 286 289 288 287
123 95 45 346 321 326 322 317 317 301 299 299 301 303 304 305 306 305 304 303 300 291 297 302 296 296 295 294 295 301 300 297 289 289 296 291 299 291 293 293 293 291 288
112 65 345 325 325 312 323 320 318 310 304 300 302 303 305 301 302 310 312 304 305 305 303 302 298 293 294 299 297 298 292 299 296 299 305 288 297 303 298 291 282 286 288
78 360 331 308 312 309 316 317 318 312 306 311 311 308 308 306 312 312 312 313 307 307 313 299 298 305 299 297 297 289 292 291 294 302 298 306 305 314 305 286 292 294 286